This is the latest recevied weather packets stored in our database for station/object VA3XLC. If no packets are shown the sender has not sent any weather packets the latest 10 day(s).
| Time | Temp. | Humidity | Pressure | Rain* | Wind** | Luminosity | Snow |
|---|---|---|---|---|---|---|---|
| 1777664789 | 8.89° C | 40% | 979.7 hPa | - | - | 733 W/m² | - |
| 1777663266 | 8.89° C | 41% | 979.5 hPa | - | - | 770 W/m² | - |
| 1777659599 | 7.78° C | 47% | 979.4 hPa | - | - | 1048 W/m² | - |
| 1777657476 | 8.33° C | 45% | 979.5 hPa | - | - | 316 W/m² | - |
| 1777647741 | 6.11° C | 62% | 980.6 hPa | - | - | 498 W/m² | - |
| 1777646540 | 6.11° C | 65% | 980.6 hPa | - | - | 338 W/m² | - |
| 1777642614 | 5.56° C | 58% | 980.4 hPa | - | - | 325 W/m² | - |
| 1777639912 | 3.89° C | 72% | 980.9 hPa | - | - | 307 W/m² | - |
| 1777639311 | 3.89° C | 72% | 980.9 hPa | - | - | 188 W/m² | - |
| 1777638110 | 3.33° C | 71% | 980.6 hPa | - | - | 114 W/m² | - |
| 1777637209 | 3.33° C | 72% | 980.6 hPa | - | - | 87 W/m² | - |
| 1777636308 | 3.33° C | 74% | 980.6 hPa | - | - | 52 W/m² | - |
| 1777634785 | 2.78° C | 76% | 980.6 hPa | - | - | 37 W/m² | - |
| 1777633885 | 2.78° C | 77% | 980.7 hPa | - | - | 19 W/m² | - |
| 1777632040 | 2.78° C | 79% | 980.5 hPa | - | - | 16 W/m² | - |
| 1777631140 | 2.78° C | 78% | 980.9 hPa | - | - | 4 W/m² | - |
| 1777629939 | 2.78° C | 78% | 980.9 hPa | - | - | 0 W/m² | - |
| 1777629638 | 2.78° C | 78% | 980.9 hPa | - | - | 0 W/m² | - |
| 1777629338 | 2.78° C | 78% | 980.8 hPa | - | - | 0 W/m² | - |
| 1777629038 | 2.78° C | 79% | 980.9 hPa | - | - | 0 W/m² | - |
| 1777627237 | 2.78° C | 79% | 981 hPa | - | - | 0 W/m² | - |
| 1777626937 | 2.78° C | 79% | 981 hPa | - | - | 0 W/m² | - |
| 1777626336 | 2.78° C | 79% | 981.1 hPa | - | - | 0 W/m² | - |
| 1777625736 | 2.78° C | 78% | 981.1 hPa | - | - | 0 W/m² | - |
| 1777624214 | 2.22° C | 78% | 980.9 hPa | - | - | 0 W/m² | - |
* Rain since midnight (hover to see other rain measurements)
** Current wind speed in m/s (hover to see current wind gust speed)